Dewpoint
34 35 37 35 32 32 32 31 31 32 29 30 30 33 34 35 37 37 37 35 34 33 31 29 27 27 25 24 24 22 21 20 17 18 17 19 21 22 21 25 26 25 25
36 31 28 29 29 28 28 29 31 30 31 31 32 34 34 35 37 37 35 36 33 30 28 27 26 21 25 25 22 22 21 21 19 18 19 18 20 21 21 22 21 20 22
24 25 26 26 27 27 28 29 30 31 32 32 33 34 34 36 35 36 34 35 31 28 27 27 26 25 24 23 23 21 21 18 20 20 19 19 18 19 19 21 22 23 19
23 23 23 27 28 29 29 30 32 32 33 34 34 35 36 36 35 35 32 30 29 27 28 28 26 24 24 23 21 20 18 17 18 21 20 17 17 18 18 17 18 20 21
22 21 24 29 30 30 30 32 32 34 33 33 34 34 35 33 30 31 29 28 28 27 26 23 22 21 21 21 19 19 19 18 17 17 16 17 17 17 17 17 17 18 21
22 23 24 28 29 31 32 32 33 32 32 33 32 32 31 28 29 29 29 26 25 23 20 20 18 19 18 21 21 21 21 19 18 18 19 19 20 19 19 20 23 20 22
23 21 22 25 27 30 30 31 32 33 33 33 33 32 31 30 29 30 26 24 23 21 20 18 16 13 20 18 20 21 23 26 27 28 25 22 23 24 22 22 20 20 21
22 22 23 25 27 28 31 31 31 32 33 32 33 33 31 27 28 27 25 24 23 22 21 20 19 18 19 21 18 22 20 20 20 18 22 24 23 22 23 25 28 26 25
21 23 25 28 28 30 30 31 31 30 30 29 32 32 29 27 25 26 24 25 24 23 21 20 19 19 20 21 22 23 21 20 20 22 23 24 25 25 27 31 27 26 26
23 26 27 28 30 30 31 31 30 29 28 29 28 29 28 28 24 23 23 27 28 25 22 19 22 19 19 19 21 23 22 20 18 19 20 20 22 24 27 31 28 26 23
26 28 28 28 28 28 29 31 29 27 30 33 33 32 28 28 28 23 23 28 26 23 22 19 19 19 18 19 19 21 22 20 20 21 21 21 23 24 24 26 28 31 29
27 28 28 28 26 25 28 29 28 28 30 33 33 32 30 29 27 25 24 24 23 26 23 21 21 18 17 17 19 17 17 19 23 21 21 21 22 22 23 25 28 29 32
28 27 28 28 27 26 28 28 27 27 28 31 31 29 28 27 26 26 25 25 23 26 24 21 19 16 16 17 16 16 17 19 18 19 20 20 21 24 26 29 30 32 34
26 26 27 29 29 27 27 26 26 26 26 25 27 27 28 26 26 26 27 26 25 25 23 21 19 18 17 16 17 17 19 17 16 18 19 21 22 24 26 27 27 27 31
26 26 26 26 28 28 26 26 25 25 26 26 24 28 29 28 27 26 26 26 27 23 22 23 20 18 15 14 16 16 16 14 13 17 19 19 19 20 22 26 25 25 28
26 25 27 28 27 27 26 26 28 28 28 29 28 29 31 29 28 27 26 25 23 19 20 22 23 22 19 15 16 16 16 13 11 13 17 17 17 19 20 23 23 24 25
28 28 28 28 27 26 26 26 26 27 28 27 28 28 28 29 28 28 27 26 23 20 21 21 24 23 21 16 14 13 14 14 13 12 15 16 17 17 20 21 21 21 22
30 30 30 29 29 29 28 28 26 26 26 27 27 28 27 27 27 26 27 26 22 23 21 22 22 22 20 14 13 12 13 16 15 12 15 16 17 17 17 17 19 19 18
28 29 31 32 32 30 30 29 28 27 26 25 25 26 28 27 26 26 27 27 23 23 22 21 22 21 19 17 19 19 18 18 16 16 16 15 17 15 16 16 16 16 16
28 29 30 31 31 30 29 28 28 28 27 26 25 25 26 28 28 29 30 28 27 26 25 23 22 22 22 20 21 20 19 19 17 15 16 17 17 16 15 15 16 16 14
28 28 29 31 31 30 31 30 29 29 28 28 28 32 27 26 26 27 28 30 28 26 27 26 25 24 24 23 19 19 17 19 16 14 15 16 16 15 14 14 15 14 13
30 31 31 32 31 32 31 31 31 29 28 28 30 30 27 29 28 28 29 31 31 30 28 28 26 25 23 22 20 21 18 17 17 16 15 14 14 15 14 14 14 14 13
30 30 29 29 29 28 30 30 31 32 32 32 31 30 31 31 31 29 31 32 31 31 30 28 27 26 25 24 23 20 18 17 18 16 13 15 14 15 16 15 13 12 12
30 32 29 30 32 31 32 32 32 31 32 32 32 32 32 32 32 32 32 32 32 32 31 30 27 26 25 25 24 21 17 18 18 14 11 14 14 14 14 13 13 12 12
32 32 32 32 32 32 32 32 32 32 32 32 32 32 32 32 32 32 32 32 31 31 29 29 28 27 25 22 22 20 17 14 14 9 12 13 12 11 12 13 12 12 10
28 27 28 29 31 31 31 31 32 32 31 32 32 32 32 32 32 32 32 32 31 30 29 29 27 26 24 23 21 19 16 13 12 6 12 13 13 14 14 12 3 12 8
Lifted_Index
9 10 11 11 11 11 12 12 12 13 13 13 13 12 11 10 10 9 9 8 7 6 5 5 6 6 6 6 6 6 6 6 7 7 7 7 7 7 7 7 7 6 6
10 11 11 11 12 12 12 12 13 13 13 13 12 11 11 10 9 9 8 7 7 6 5 5 6 6 6 6 6 6 6 7 7 7 7 7 7 7 7 7 7 6 6
12 12 12 12 12 12 12 13 13 13 12 12 11 11 10 10 9 8 7 6 6 5 5 6 6 6 6 6 6 7 7 7 7 7 7 7 7 7 7 7 6 6 6
13 13 13 12 12 12 12 12 12 12 12 11 11 11 10 10 9 8 7 6 5 5 6 6 6 7 7 7 8 8 8 8 8 8 8 7 7 7 6 6 6 6 6
13 13 13 12 12 12 12 12 12 12 11 11 11 10 10 9 8 7 6 5 5 6 6 7 7 8 8 9 9 9 9 9 9 8 8 7 7 7 6 6 6 5 5
14 14 13 13 12 12 12 12 11 11 11 10 10 10 9 8 8 7 6 6 6 6 7 7 8 9 9 10 10 10 10 10 9 9 8 8 7 6 6 6 5 5 5
14 14 14 13 13 12 11 11 11 11 10 10 10 9 8 7 7 6 6 6 7 7 8 8 8 9 10 10 11 11 10 9 9 9 8 8 7 7 6 5 5 5 5
14 14 14 13 12 12 11 11 11 11 10 10 9 8 7 7 6 6 7 7 7 8 8 8 9 10 10 11 11 11 10 9 9 9 9 8 8 7 6 5 5 4 4
14 14 13 13 12 11 11 11 11 11 10 9 8 7 7 6 6 7 7 8 8 8 8 9 9 10 11 12 11 11 10 10 10 10 10 9 8 7 6 5 5 4 4
14 14 13 12 12 11 11 11 11 11 10 9 8 7 7 6 6 7 8 8 8 8 8 9 10 11 12 12 12 11 11 11 11 10 10 10 8 7 6 5 5 4 4
13 13 12 12 12 12 12 11 11 10 9 9 8 7 7 7 7 8 8 8 8 8 8 9 10 11 12 12 12 12 12 11 11 11 11 10 9 8 7 6 5 4 4
13 13 12 12 12 12 12 11 10 10 9 9 8 7 7 7 7 8 8 8 8 8 9 9 10 11 12 12 12 12 12 12 12 11 11 10 9 8 8 7 6 5 4
13 12 12 12 12 11 11 10 10 9 9 8 8 7 7 7 7 8 8 8 8 8 9 9 10 11 11 12 12 12 12 12 12 12 11 11 10 9 8 7 6 5 4
12 12 12 11 11 11 10 10 9 9 9 8 8 7 7 7 7 7 8 8 8 8 9 9 10 10 11 11 12 12 12 12 12 12 11 11 10 10 9 8 7 6 5
12 11 11 11 10 10 10 9 9 9 8 8 8 8 7 7 7 8 8 8 8 8 9 9 9 9 10 10 11 12 12 12 12 12 12 11 11 10 9 9 8 7 6
11 11 10 10 9 9 9 9 8 8 8 8 8 8 8 7 7 8 8 8 8 8 8 8 8 8 8 9 10 11 11 12 12 12 12 12 11 11 10 10 9 8 7
10 10 9 9 8 8 8 8 8 7 7 7 8 8 8 7 7 8 8 8 8 8 8 8 8 8 8 8 9 10 11 11 12 12 12 12 12 12 11 10 10 9 8
10 9 9 8 8 8 8 8 7 7 6 7 7 8 8 8 8 8 8 8 8 8 8 8 8 8 8 8 9 9 10 11 11 12 12 12 13 13 12 11 11 10 10
9 8 8 8 8 7 8 7 7 6 6 6 6 7 7 8 8 8 8 8 7 7 8 8 8 8 8 8 9 9 9 10 10 11 12 12 13 13 13 13 12 12 11
8 8 8 8 7 7 8 7 6 5 5 5 6 6 7 7 8 7 7 7 7 7 7 7 8 8 8 8 8 8 9 9 10 10 11 12 13 13 13 13 13 13 13
7 7 7 7 7 7 7 7 6 5 5 5 5 6 6 7 7 7 7 7 7 7 7 7 7 7 8 8 8 8 8 9 9 10 10 11 12 13 13 13 13 13 13
7 7 7 7 7 7 8 7 6 6 5 5 5 5 6 6 6 7 7 6 6 7 7 7 7 7 7 8 8 8 8 8 9 9 10 11 11 12 13 13 13 13 13
7 7 7 7 7 8 8 7 7 6 5 5 5 5 5 6 6 6 6 6 6 6 7 7 7 7 7 8 8 8 8 8 9 9 10 10 11 11 12 12 12 12 12
7 7 7 7 7 7 7 7 6 6 5 5 5 5 5 5 5 5 6 6 6 6 7 7 7 7 7 7 8 8 9 9 9 9 10 10 10 10 11 11 11 12 12
7 7 7 7 7 7 7 7 6 5 5 5 5 5 5 5 5 5 5 5 6 6 7 7 7 7 7 7 7 8 9 9 9 10 10 10 10 10 10 10 10 11 11
7 7 8 8 7 7 7 7 6 5 5 5 5 5 5 5 5 5 5 5 5 6 6 7 7 6 7 7 7 8 8 9 9 10 10 10 9 9 9 9 10 10 10